Regional Weather Roundup
Issued by NWS

Home | Current Version | Previous Version | Text Only | Print | Product List | Glossary On
Versions: 1 2 3 4 5 6 7 8 9 10 11 12 13 14 15 16 17 18 19 20 21 22 23 24 25 26 27
000
ASPQ40 PGUM 232212
RWRPQ
WEATHER ROUNDUP FOR THE MARIANAS AND MICRONESIA
NATIONAL WEATHER SERVICE TIYAN GU
800 AM CHST SAT JUN 24 2017

GUZ001>004-232300-
MARIANA ISLANDS-

CITY           SKY/WX    TMP DP  RH WIND       PRES   REMARKS
GUAM AIRPORT   SUNNY     81  79  94 SE6       29.84S
ANDERSEN AFB   MOSUNNY   82  77  83 SE9       29.86R HX  91
ROTA AIRPORT   MOSUNNY   81  75  83 E12       29.86R
TINIAN AP      PTSUNNY   82  77  83 E7        29.84R HX  91
SAIPAN AP      MOSUNNY   82  75  78 E13       29.85R

$$

PMZ161-232300-
REPUBLIC OF PALAU-

CITY           SKY/WX    TMP DP  RH WIND       PRES   REMARKS
KOROR AP       MOSUNNY   75  73  94 CALM      29.80R
KOROR WSO      NOT AVBL

$$

PMZ171>174-232300-
FEDERATED STATES OF MICRONESIA-

CITY           SKY/WX    TMP DP  RH WIND       PRES   REMARKS
YAP AIRPORT    CLOUDY    84  79  84 VRB3      29.80R HX  96
CHUUK AP       MOSUNNY   86  81  84 VRB5      29.80R HX 102
POHNPEI AP     NOT AVBL
POHNPEI WSO    MOSUNNY   84  79  84 NE7       29.85R HX  96
KOSRAE AP      CLOUDY    86  77  74 E12       29.78F HX  97

$$

PMZ181-232300-
REPUBLIC OF THE MARSHALL ISLANDS-

CITY           SKY/WX    TMP DP  RH WIND       PRES   REMARKS
KWAJALEIN AP   SUNNY     86  75  70 E16       29.83F HX  95
MAJURO AP      PTSUNNY   84  75  74 NE18      29.81S HX  92
MAJURO WSO     PTSUNNY   84  77  79 E9        29.81R HX  94

$$





USA.gov is the U.S. government's official web portal to all federal, state and local government web resources and services.